CAPE
0 0 0 0 0 0 0 0 0 0 0 0 574 1074 1009 1419 2124 1433 3338 2684 1756 1519 794 941 2395 2380 2422 2586 2253 1786 1568 1598 1770 1814 1650 1845 1965 1630 1348 1468 1600 1198 485 173 201 299 488 656 903
0 0 0 0 0 0 0 0 0 0 0 0 405 938 1173 1810 2342 2695 2818 2485 1733 1098 532 479 2310 2493 2376 2472 2100 1814 1756 1841 1833 1688 1791 1978 1897 1585 1249 1458 1452 822 358 132 220 432 541 654 989
0 0 0 0 0 0 0 0 0 0 0 26 769 1303 1428 1641 2816 2512 2930 2285 1713 1071 238 1296 2342 2436 2400 2234 2177 2055 2031 1929 1861 1856 1967 1937 1907 1583 1294 1473 1430 670 244 105 248 396 521 1113 1152
0 0 0 0 0 0 0 0 0 0 0 91 850 1073 1054 2848 2992 2821 2698 2011 1825 1069 688 1599 2223 2284 2252 1979 2182 2221 2186 2065 1991 2025 1989 1869 1629 1539 1378 1399 1365 898 214 93 269 394 780 1445 1543
0 0 0 0 0 0 0 0 0 0 0 67 661 1063 1057 3180 3285 3019 2846 2248 1721 1283 1390 502 2136 2172 2036 1840 1854 2101 2184 2070 2051 2071 1945 1814 1651 1494 1294 1288 1209 692 176 104 257 600 1181 1863 1554
0 0 0 0 0 0 0 0 0 0 0 151 563 799 425 3031 3081 2772 2625 2026 1806 1737 1123 405 1722 2022 2104 1978 1982 2079 2043 2010 1994 1969 1896 1770 1551 1364 1178 1187 1215 829 204 105 240 779 1370 1598 1295
0 0 0 0 0 0 0 0 0 0 0 3 279 240 401 2567 2764 2670 2413 2005 1874 2089 1756 894 304 1074 1762 1888 1927 1949 1928 1881 1857 1783 1750 1655 1462 1261 1044 1131 1083 837 402 182 240 1060 1553 1511 960
0 0 0 0 0 0 0 0 0 0 0 0 0 8 4 966 1984 1947 1641 1420 1566 1858 2395 1930 1369 663 287 519 1645 1733 1771 1849 1785 1714 1683 1626 1347 999 863 1038 970 679 290 184 270 1465 1757 1330 909
0 0 0 0 0 0 0 0 0 0 0 0 0 0 0 217 525 779 1111 1201 1098 1162 1580 1885 2141 1669 1101 722 886 1451 1452 1499 1485 1329 1438 1086 111 464 347 47 934 817 361 195 240 1174 1518 1244 716
0 0 0 0 0 0 0 0 0 0 0 0 0 0 0 0 17 12 74 519 894 944 1052 1214 1357 1952 2071 1685 1851 480 390 387 273 124 463 115 0 506 191 226 1066 771 495 257 294 493 1401 1194 912
0 0 0 0 0 0 0 0 0 0 0 0 0 0 0 0 0 0 0 0 62 217 915 1164 1853 2395 2221 2090 2594 1802 1016 569 323 201 639 393 6 187 102 440 66 12 461 33 63 177 380 802 1120
0 0 0 0 0 0 0 0 0 0 0 0 0 0 0 0 0 0 0 0 0 0 119 1210 2644 3416 3395 2040 2336 2417 2343 1684 1056 646 696 1213 353 332 300 24 151 3 0 6 0 0 136 436 1334
0 0 0 0 0 0 0 0 0 0 0 0 0 0 0 0 0 0 0 0 0 0 0 7 1086 2941 3529 3771 2283 2099 3428 2105 2063 1997 1202 955 622 529 329 186 98 53 3 0 75 11 77 250 422
0 0 0 0 0 0 0 0 0 0 0 0 0 0 0 0 0 0 0 0 0 0 0 0 447 1386 2036 2408 2515 2350 2490 3372 2234 2596 2170 1370 1048 1121 415 346 307 193 27 5 39 58 9 133 249
0 0 0 0 0 0 0 0 0 0 0 0 0 0 0 0 0 0 0 0 0 0 0 0 0 948 2109 2062 2416 2189 1857 2424 2687 2132 2080 1880 1653 1003 1272 468 1167 331 563 155 69 51 126 43 159
0 0 0 0 0 0 0 0 0 0 0 0 0 0 0 0 0 0 0 0 0 0 0 0 0 433 1940 2012 2434 2092 2047 3305 3139 2589 2017 2282 1753 1350 1299 585 872 1329 821 579 442 274 182 208 42
0 0 0 0 0 0 0 0 0 0 0 0 0 0 0 0 0 0 0 0 0 0 0 0 20 0 1573 2862 2301 2553 2858 2707 2774 2448 2521 2272 1780 1572 1573 1289 1111 1577 1059 1453 1299 1003 875 772 447
0 0 0 0 0 0 0 0 0 0 0 0 0 0 0 0 0 0 0 0 0 0 20 592 539 985 2371 2044 2021 1356 1190 1264 1805 2044 2291 2047 1916 1435 1729 1439 1574 2151 1553 1343 820 1691 1238 966 973
0 0 0 0 0 0 0 0 0 0 0 0 0 0 0 0 0 0 0 0 0 0 331 975 1534 2977 2585 1263 838 427 179 277 395 808 1566 1822 1581 1729 1947 1513 1440 1615 1575 1874 1480 1675 1445 1189 1249
0 0 0 0 0 0 0 0 0 0 0 0 0 0 0 0 0 0 0 0 0 224 724 1390 2172 3625 3191 1574 1370 628 208 116 138 210 843 528 807 1183 1458 1555 1491 1700 1446 1653 1802 1151 1031 1455 1477
0 0 0 0 0 0 0 0 0 0 0 0 0 0 0 0 0 0 0 0 0 254 382 1096 2654 3644 3658 2836 1970 1632 1043 1033 282 157 497 919 1141 1263 1645 1622 1849 2158 1893 972 1671 1864 1189 733 504
0 0 0 0 0 0 0 0 0 0 0 0 0 0 0 0 0 0 0 0 0 4 124 538 2117 3389 3326 3428 2105 3128 1066 537 164 222 413 633 757 1031 1358 2099 2034 2776 1756 2076 1846 1668 1816 1963 1644
0 0 0 0 0 0 0 0 0 0 0 0 0 0 0 0 0 0 0 0 0 0 37 342 2232 3110 3518 3665 3423 2350 2314 431 160 187 954 1356 1473 1337 1321 1426 1921 2547 1890 2283 2753 2046 2522 2024 1355
0 0 0 0 0 0 0 0 0 1 2 0 0 0 0 0 0 0 0 5 7 1 24 185 792 1600 2129 2523 2914 3836 3486 2407 831 1150 776 521 220 1212 1931 1238 1552 2297 2552 2549 2024 2366 2160 2218 1869
4 7 9 30 70 12 53 42 0 0 0 0 0 0 0 0 0 0 0 0 0 11 182 349 613 893 1101 1553 2079 2568 2315 2226 2114 1280 1060 780 138 158 1162 1079 1548 1717 2462 2459 2793 2372 2304 2223 1832
10 73 76 68 84 81 17 13 11 6 0 0 0 0 0 0 0 0 0 0 0 0 10 46 670 940 1132 1160 1243 1479 1616 1201 986 1643 472 236 53 40 145 649 1098 1299 1371 1822 2522 1674 1585 1865 2052
38 50 49 83 76 95 36 33 59 29 0 0 0 0 0 0 0 1 7 7 7 0 1 9 169 434 656 716 986 1166 1275 1586 826 1521 1577 347 824 104 219 292 533 843 1090 1819 2320 1359 1801 2014 2003
42 34 92 99 149 145 43 102 91 82 60 7 1 0 0 12 5 2 5 8 10 0 1 5 17 109 232 431 603 798 948 887 636 788 766 832 316 269 123 136 229 335 631 1227 2166 1429 1643 1871 1533
100 102 91 128 111 234 178 93 160 12 8 1 8 1 0 1 32 24 14 13 3 1 0 1 2 4 37 202 452 673 630 720 797 904 597 489 459 310 177 74 22 27 184 794 1804 1808 1107 1597 1757
50 128 151 439 136 320 271 73 48 30 18 62 6 22 13 34 71 59 38 39 22 5 0 0 0 0 13 81 377 497 884 683 1335 1026 762 404 267 234 86 1 0 0 0 143 535 837 890 1261 1180
CIN
0 0 0 0 0 0 0 0 0 0 0 0 -33 -1 -2 -23 0 -36 0 -17 -38 -75 -223 -266 -77 -72 -79 -64 -67 -88 -109 -103 -74 -67 -74 -40 -27 -39 -51 -31 -18 -46 -126 -165 -139 -101 -51 -31 -12
0 0 0 0 0 0 0 0 0 0 0 0 -35 -17 -2 -5 0 -2 -12 -19 -52 -142 -273 -281 -82 -56 -70 -66 -82 -92 -85 -77 -64 -67 -59 -34 -30 -46 -59 -31 -25 -76 -141 -189 -146 -75 -44 -27 -3
0 0 0 0 0 0 0 0 0 0 0 -46 -2 -18 -2 -9 0 -6 -9 -26 -59 -135 -264 -199 -89 -72 -71 -72 -65 -72 -69 -66 -56 -46 -42 -36 -29 -42 -53 -21 -18 -93 -157 -205 -142 -92 -54 -4 -1
0 0 0 0 0 0 0 0 0 0 0 -60 -2 -3 -63 -7 0 0 -4 -23 -52 -101 -164 -223 -100 -66 -67 -90 -62 -51 -49 -55 -51 -35 -25 -30 -41 -40 -44 -20 -18 -58 -171 -232 -128 -103 -34 0 0
0 0 0 0 0 0 0 0 0 0 0 -47 0 -1 -39 -1 0 0 0 -5 -17 -49 -100 -301 -119 -89 -82 -83 -67 -47 -41 -41 -30 -22 -20 -28 -42 -39 -37 -22 -19 -78 -197 -232 -152 -73 -11 0 0
0 0 0 0 0 0 0 0 0 0 0 -6 0 -2 -52 0 0 0 0 -2 -5 -28 -122 -309 -181 -120 -91 -83 -64 -50 -45 -43 -41 -29 -21 -20 -30 -38 -48 -26 -19 -60 -174 -211 -145 -54 -5 0 -1
0 0 0 0 0 0 0 0 0 0 0 -14 -1 -1 -42 0 0 0 0 -4 -9 -10 -57 -182 -293 -234 -140 -100 -74 -59 -49 -43 -39 -35 -28 -25 -30 -42 -54 -23 -17 -50 -125 -173 -132 -27 -1 0 -16
0 0 0 0 0 0 0 0 0 0 0 0 0 0 -64 -42 -5 -1 -1 -9 -9 -3 -2 -55 -109 -193 -262 -229 -105 -76 -58 -42 -31 -29 -19 -16 -33 -59 -64 -34 -34 -74 -139 -169 -136 -3 0 -5 -23
0 0 0 0 0 0 0 0 0 0 0 0 0 0 0 -92 -41 -4 0 0 0 0 0 0 -1 -42 -79 -121 -176 -112 -84 -60 -44 -44 -25 -53 -106 -70 -95 -76 -58 -43 -116 -157 -138 -16 -2 -6 -39
0 0 0 0 0 0 0 0 0 0 0 0 0 0 0 0 -24 -20 -22 0 -1 -1 -1 0 -1 0 0 0 -70 -174 -169 -158 -147 -159 -103 -131 0 -9 -31 -98 -37 -53 -88 -139 -119 -81 -3 -19 -9
0 0 0 0 0 0 0 0 0 0 0 0 0 0 0 0 0 0 0 0 -1 -7 -1 0 -7 0 0 0 0 -13 -33 -86 -115 -121 -45 -71 -37 -10 -38 -31 -110 -21 -93 -108 -175 -117 -49 -5 -14
0 0 0 0 0 0 0 0 0 0 0 0 0 0 0 0 0 0 0 0 0 0 -6 -1 -1 0 0 0 0 0 -1 -1 -6 -37 -33 -1 -25 -6 -15 -40 -28 -11 0 -22 0 0 -48 -1 -18
0 0 0 0 0 0 0 0 0 0 0 0 0 0 0 0 0 0 0 0 0 0 0 0 -1 0 0 -7 -1 0 -4 -2 -4 -2 -6 -4 -3 0 -7 -2 -2 -22 -2 0 -13 -18 -32 -5 0
0 0 0 0 0 0 0 0 0 0 0 0 0 0 0 0 0 0 0 0 0 0 0 0 -2 -1 -2 -2 -5 -1 0 -12 -1 -11 -3 -2 0 0 -2 -3 -1 -1 -6 0 -12 -15 -32 -41 -1
0 0 0 0 0 0 0 0 0 0 0 0 0 0 0 0 0 0 0 0 0 0 0 0 0 -2 -16 -22 0 0 0 -2 -20 -1 0 0 -1 -3 -2 -15 -13 0 -1 -2 -1 -2 -15 -49 -17
0 0 0 0 0 0 0 0 0 0 0 0 0 0 0 0 0 0 0 0 0 0 0 0 0 -4 -16 -10 0 0 0 -2 -9 -3 0 0 0 0 -14 -19 -5 -14 0 -1 0 0 -1 -4 -24
0 0 0 0 0 0 0 0 0 0 0 0 0 0 0 0 0 0 0 0 0 0 0 0 -19 0 -6 -1 -1 0 0 0 -19 -23 -2 -2 0 0 0 0 -1 -38 -1 -3 -2 -9 0 0 -1
0 0 0 0 0 0 0 0 0 0 0 0 0 0 0 0 0 0 0 0 0 0 -60 -9 -7 -8 0 0 0 -1 0 0 0 -3 0 -3 -1 -1 -1 -7 -5 -5 -4 -1 0 -17 -19 -6 -10
0 0 0 0 0 0 0 0 0 0 0 0 0 0 0 0 0 0 0 0 0 0 -24 -29 -7 -1 0 0 0 0 0 0 0 -1 0 0 0 0 0 0 0 -8 -10 -29 -34 -15 -15 -8 -1
0 0 0 0 0 0 0 0 0 0 0 0 0 0 0 0 0 0 0 0 0 -103 -24 -26 -9 0 -1 0 -1 0 0 -1 -1 -1 -1 -1 0 0 0 0 0 0 0 -5 -11 -38 -58 -8 -6
0 0 0 0 0 0 0 0 0 0 0 0 0 0 0 0 0 0 0 0 0 -86 -48 -24 -11 0 -4 0 -1 -3 -3 -6 -1 0 0 0 0 0 0 -1 0 0 0 0 -1 -3 -25 -60 -26
0 0 0 0 0 0 0 0 0 0 0 0 0 0 0 0 0 0 0 0 0 -86 -84 -37 -23 0 -2 -1 -1 -1 -3 -1 -1 -1 -1 -1 0 0 -1 0 0 0 0 0 0 0 0 -2 -5
0 0 0 0 0 0 0 0 0 0 0 0 0 0 0 0 0 0 0 0 0 0 -70 -43 -25 -3 0 0 -3 0 -1 0 0 -1 -2 -8 -8 -10 -6 -1 0 0 0 0 0 0 0 0 0
0 0 0 0 0 0 0 0 0 0 -1 0 0 0 0 0 0 0 0 -176 -159 -39 -121 -81 -79 -70 -35 -8 -7 0 0 -2 -3 -1 -6 -8 -1 -2 -1 -7 -2 0 0 0 0 0 0 0 0
0 0 0 0 0 0 0 0 0 -3 0 0 0 0 0 0 0 0 0 0 0 -103 -48 -61 -92 -110 -103 -81 -44 -24 -27 -27 -19 -13 -16 -3 -3 -6 0 -1 -1 0 0 0 0 0 0 0 0
0 -1 0 0 -3 0 -25 -3 0 0 0 0 0 0 0 0 0 0 0 0 0 0 -38 -40 -69 -77 -70 -64 -56 -51 -50 -38 -29 -22 -14 -18 -26 -58 -36 -24 -18 -8 0 0 0 0 0 -1 0
0 0 0 0 0 -1 -1 -1 -2 -2 0 0 0 0 0 0 0 -1 -1 -2 -1 0 -4 -34 -43 -42 -56 -50 -54 -52 -57 -36 -16 -3 -30 -46 -24 -50 -53 -46 -34 -20 -10 0 0 0 0 0 0
0 0 0 0 0 0 0 0 -1 -2 -2 -1 -2 0 0 0 -1 -1 -1 -1 -1 0 -5 -29 -40 -40 -38 -38 -40 -39 -43 -48 -41 -47 -59 -29 -50 -73 -94 -88 -68 -59 -30 0 0 0 0 0 0
-1 0 -1 -1 -2 0 0 -1 -5 -54 -35 -4 0 -2 0 0 -20 0 0 0 -1 -5 0 -7 -9 -11 -37 -28 -27 -25 -26 -44 -45 -47 -69 -61 -74 -77 -92 -135 -156 -162 -102 -4 0 0 -2 0 0
-1 0 -1 -2 0 -1 0 0 -1 -26 -59 -2 0 -1 -2 0 -1 -4 0 0 -1 0 0 0 0 0 -24 -32 -9 -19 -15 -18 -1 -28 -47 -68 -67 -75 -120 -10 0 0 0 -120 -5 0 0 0 0
Wind_Speed
13 13 10 7 9 9 16 6 7 5 7 8 1 9 17 18 18 7 7 7 15 18 17 15 11 11 12 12 13 13 13 13 12 12 13 13 14 13 12 10 10 11 11 10 9 8 8 8 8
15 6 8 9 10 14 13 12 8 1 7 3 1 4 4 15 16 16 15 11 16 16 14 15 12 11 11 12 14 14 13 13 12 12 13 13 13 13 12 10 10 10 10 10 9 7 7 7 7
13 9 10 7 13 16 5 8 3 2 4 7 9 8 10 8 12 7 12 15 17 15 15 15 13 13 13 13 13 13 13 13 12 12 12 12 13 12 11 10 9 10 9 8 8 7 6 7 10
8 8 9 11 15 7 10 7 3 8 6 3 4 13 9 5 4 15 13 15 15 16 16 16 12 11 12 14 13 13 13 13 13 13 12 12 12 11 10 9 9 9 9 8 7 6 6 5 11
9 10 13 13 20 8 2 3 4 6 9 12 6 14 11 6 13 12 13 12 14 15 17 16 11 11 12 13 13 12 13 12 11 11 12 12 11 11 10 9 9 8 8 8 7 7 8 12 12
10 11 14 14 11 5 4 3 7 6 7 8 7 14 8 11 12 14 13 12 14 14 15 15 13 12 12 12 12 12 12 12 12 11 11 10 10 10 10 9 9 9 8 7 6 7 9 11 11
15 12 16 17 10 7 6 6 7 6 8 6 5 13 10 9 13 11 10 12 13 14 15 14 14 13 12 12 12 12 12 11 11 11 11 11 10 9 9 9 9 8 8 8 6 7 10 11 10
12 14 20 13 6 12 6 9 3 7 6 6 7 6 14 10 11 13 15 13 14 13 15 14 14 14 13 13 12 12 12 12 11 11 10 11 10 9 9 8 9 10 8 8 7 7 11 11 10
12 11 14 16 8 7 10 12 4 3 4 7 1 11 12 10 10 12 9 13 14 12 15 15 15 14 13 14 12 10 11 11 11 11 10 10 10 11 12 8 15 10 9 7 8 9 11 11 10
11 12 16 3 6 2 9 10 9 8 8 9 9 9 7 8 8 11 11 11 10 13 12 12 12 14 12 11 14 12 11 11 11 11 12 10 11 11 10 13 12 10 9 8 7 9 11 13 9
15 15 4 3 8 8 4 10 3 10 11 11 12 13 10 9 6 9 7 8 11 16 9 7 8 5 10 9 10 8 8 8 8 12 11 10 9 8 7 9 8 8 10 8 9 9 9 12 4
12 7 6 6 5 7 9 10 10 10 13 7 1 5 4 7 9 10 11 10 9 7 3 11 15 8 8 5 7 7 6 8 8 10 11 7 7 7 7 7 11 9 9 10 10 9 10 12 15
13 7 7 2 7 10 10 8 13 14 12 3 7 7 11 10 9 9 10 10 10 10 4 5 6 8 6 7 6 6 2 8 5 7 11 9 9 7 7 7 6 9 8 9 7 7 7 7 8
7 3 9 10 12 12 13 14 12 13 8 6 11 12 13 11 11 10 10 9 9 9 10 7 10 8 7 8 6 3 6 2 7 4 5 12 8 6 7 7 7 6 6 6 7 7 6 8 9
7 12 13 13 11 10 9 15 15 15 9 13 13 13 11 10 12 12 11 11 9 8 9 8 5 9 7 6 7 6 7 3 7 5 5 9 9 8 7 6 4 8 6 7 6 6 6 7 8
15 15 16 18 11 11 8 15 20 15 11 14 15 15 14 14 15 14 13 10 9 10 10 7 8 11 9 7 7 5 4 3 3 4 6 8 9 9 6 8 6 4 6 7 7 7 7 8 8
12 14 17 12 14 11 14 14 7 11 12 14 14 16 16 17 17 17 16 13 11 10 10 10 9 8 11 8 5 7 8 7 5 4 5 8 11 11 9 6 6 5 6 5 5 5 8 8 8
7 16 15 10 15 13 15 18 16 12 16 17 16 16 16 17 18 14 14 15 14 12 10 10 9 8 10 9 7 8 7 7 9 6 4 6 6 9 9 7 4 5 5 8 9 6 3 8 6
11 15 14 13 9 9 12 18 20 18 16 18 18 16 15 16 13 10 10 13 13 10 10 12 11 11 8 9 9 7 7 6 6 4 10 10 7 9 7 7 5 6 6 5 8 6 5 7 9
14 16 17 15 14 12 17 20 20 21 20 19 18 14 14 13 12 9 9 12 11 12 12 12 12 12 10 9 7 6 4 6 5 7 9 6 7 8 8 7 6 7 7 8 5 5 5 9 8
15 15 15 16 13 13 17 23 24 25 27 22 20 14 13 14 13 11 9 12 16 14 13 12 12 14 12 10 7 4 3 3 5 5 6 8 8 7 8 7 7 6 7 7 10 7 7 6 10
15 12 12 14 15 14 16 16 17 10 10 14 14 15 15 14 13 10 10 12 15 16 13 14 14 13 13 11 10 10 9 9 9 7 3 6 5 6 8 9 9 8 8 7 8 9 10 10 11
14 13 13 14 17 19 20 15 16 16 20 18 15 17 16 16 12 12 9 10 12 14 14 12 12 13 12 12 11 10 10 8 7 5 4 2 3 6 7 8 8 8 9 9 8 7 10 10 13
12 15 16 18 17 18 20 20 18 17 14 12 12 14 13 12 10 8 8 8 8 11 12 12 12 10 11 11 13 10 9 10 6 5 5 7 7 8 9 6 6 7 8 10 10 8 11 11 11
17 13 13 17 15 18 20 15 11 8 3 6 12 12 11 11 10 10 11 12 11 11 11 11 13 13 12 12 12 12 10 8 7 6 8 8 5 6 6 4 5 7 7 9 9 8 10 10 12
20 17 14 20 18 19 10 8 13 10 7 10 10 10 13 11 13 13 14 12 11 11 12 13 12 12 12 13 12 11 11 8 8 9 7 6 7 4 2 3 6 9 10 9 8 9 10 12 10
16 20 22 21 22 19 22 29 18 15 16 13 12 14 12 14 12 8 7 7 8 8 7 7 10 10 10 11 10 10 10 9 8 6 6 6 5 5 7 7 7 9 11 10 9 10 10 11 10
16 18 18 11 16 24 20 23 17 17 12 18 13 15 14 14 13 10 10 11 6 8 6 7 8 10 10 10 10 10 10 10 8 7 8 7 3 4 5 6 8 10 11 11 10 11 11 11 11
18 18 20 21 20 19 21 17 11 7 9 8 15 16 15 16 17 15 11 10 10 8 9 8 8 11 12 12 12 12 12 12 11 10 10 10 8 8 8 8 9 10 11 10 11 10 12 14 12
26 20 21 11 16 19 19 21 20 3 7 14 14 16 13 18 14 15 16 13 8 10 11 13 12 13 13 14 14 14 12 12 11 11 11 10 9 9 10 9 9 9 10 10 11 14 14 13 13
Wind_Direction
264 227 234 239 240 233 245 163 3 204 198 65 309 344 58 26 15 60 124 130 123 123 135 151 143 147 141 136 137 140 144 147 149 146 138 135 131 129 130 130 126 120 114 110 106 101 99 99 105
279 230 234 267 250 234 233 88 208 64 8 18 61 193 127 54 82 129 123 125 125 126 138 144 140 140 136 135 139 141 147 148 148 145 140 137 134 133 135 134 129 123 120 117 112 105 99 105 105
257 244 261 226 235 258 329 126 351 6 240 231 144 350 35 54 44 74 96 127 120 133 148 127 143 137 141 138 137 140 145 145 146 147 142 140 138 137 139 138 135 131 125 120 115 108 105 116 118
219 204 252 255 241 232 353 63 352 234 173 207 301 94 88 72 54 86 116 129 137 140 133 132 135 134 138 140 140 140 144 147 149 149 146 143 140 138 142 142 141 136 131 124 116 107 107 128 129
242 257 249 223 250 57 279 331 261 219 156 174 278 116 93 77 106 114 127 138 145 137 118 143 135 139 140 144 144 141 143 145 147 148 148 146 143 141 146 145 144 140 134 133 124 117 119 121 131
227 248 245 238 223 137 244 251 249 244 184 84 180 106 91 160 130 130 138 148 137 128 134 138 144 149 148 148 149 146 146 149 150 151 150 147 146 147 145 149 148 145 145 141 130 131 141 135 134
249 228 253 256 183 180 183 263 231 204 204 140 79 145 125 134 114 115 121 132 128 134 137 155 163 160 155 155 156 153 152 154 154 155 152 150 151 150 149 154 152 149 150 148 140 142 153 142 143
267 274 256 269 171 209 143 232 176 278 82 58 274 152 157 127 152 152 151 150 150 159 143 157 163 167 171 166 167 164 161 159 160 161 156 152 149 157 163 153 160 159 163 159 146 138 150 150 150
237 260 251 237 204 210 139 239 172 40 185 225 91 69 94 150 181 177 162 168 164 167 150 165 169 167 183 161 161 169 171 169 166 170 168 162 193 179 162 186 147 168 171 170 157 150 151 152 150
233 230 255 293 230 271 165 256 158 209 191 171 167 115 150 177 206 200 196 189 185 163 170 181 183 155 187 162 144 186 177 187 192 191 179 212 217 180 197 146 152 168 179 178 174 166 167 188 168
221 256 340 59 353 305 216 207 191 250 220 223 203 175 175 181 203 243 240 240 187 194 177 192 150 151 202 184 162 179 183 193 192 200 194 206 207 184 193 154 173 186 192 191 187 182 205 201 153
260 265 299 169 174 247 254 257 248 239 258 25 56 323 252 232 241 229 239 256 225 228 235 177 156 179 232 215 182 197 193 182 190 195 194 213 235 196 209 212 182 200 177 225 188 193 213 235 171
237 179 217 230 225 236 257 249 257 256 238 179 246 219 248 242 253 264 276 285 295 300 198 209 199 169 208 240 204 219 219 189 179 170 186 216 210 221 214 227 235 183 198 199 205 241 191 223 238
205 218 214 233 236 228 244 240 231 247 240 238 240 239 226 238 243 248 254 258 260 265 266 228 162 164 212 233 258 220 233 333 182 183 182 196 217 214 218 224 219 238 232 211 213 207 214 237 231
250 249 227 235 233 235 242 248 231 249 178 234 225 229 243 231 239 243 238 234 245 232 233 227 188 156 205 220 210 215 259 198 269 185 184 193 193 208 235 232 224 227 221 247 222 231 206 235 249
243 234 252 197 213 224 223 265 203 209 206 228 238 244 244 237 228 236 238 238 231 228 189 228 225 170 177 213 210 208 219 207 141 192 218 185 204 210 194 226 248 286 230 210 230 216 231 224 241
203 248 217 213 181 240 208 263 205 174 237 241 250 257 254 249 240 237 237 236 218 218 214 208 209 238 150 189 171 231 160 193 179 212 183 176 191 201 223 213 236 304 239 248 229 229 229 234 234
290 206 255 236 173 207 253 248 257 242 229 244 246 252 247 250 246 237 231 229 223 206 200 213 197 209 162 166 183 206 173 208 187 190 177 181 208 201 199 226 205 256 271 264 228 200 258 255 234
323 295 292 286 232 258 259 272 270 265 243 245 247 247 240 239 241 225 220 229 215 216 197 199 193 171 178 187 192 201 206 199 216 218 159 166 208 195 196 242 199 215 248 284 279 302 201 267 257
269 264 262 258 261 262 271 270 266 259 251 247 253 243 228 222 220 212 216 217 214 209 203 193 192 170 193 203 220 226 206 181 194 184 157 202 192 193 200 222 203 215 232 233 253 244 270 255 229
252 260 276 281 290 270 268 264 256 251 241 243 243 236 229 224 220 208 210 206 201 207 198 200 195 177 189 221 194 194 245 267 178 231 203 194 217 226 216 230 245 195 223 234 232 236 228 244 273
264 263 273 258 261 266 258 282 279 287 216 235 229 221 232 229 226 243 237 227 212 198 202 200 197 188 187 210 190 195 209 211 217 208 160 157 174 222 222 222 243 234 251 237 200 225 228 231 253
276 303 288 281 278 278 261 258 264 246 251 236 219 238 219 230 217 222 215 220 220 208 194 196 192 190 195 190 236 189 227 220 242 219 159 98 288 253 248 254 247 241 241 241 246 213 224 233 241
283 280 263 267 258 255 256 251 265 266 230 218 209 221 208 216 215 212 179 177 185 184 182 188 183 192 204 196 198 232 204 227 256 186 224 225 226 188 197 226 249 261 258 251 253 232 230 241 259
241 250 267 262 240 247 246 238 255 336 26 303 196 195 203 214 202 183 182 180 173 158 157 165 176 183 190 193 201 207 212 206 212 202 205 242 227 238 226 186 232 262 246 249 245 240 251 236 242
270 259 249 279 282 289 2 249 248 244 299 217 264 212 190 208 204 193 195 158 181 162 161 156 161 164 175 181 185 187 186 193 210 193 257 208 235 243 281 268 263 267 267 264 269 252 245 247 235
254 255 272 278 274 276 276 279 252 216 195 220 220 229 224 200 236 192 179 178 179 166 167 180 168 178 182 187 189 191 194 231 212 178 188 209 223 245 224 244 270 278 276 270 268 252 246 257 257
260 281 280 250 273 266 265 268 277 280 211 208 229 236 222 196 208 212 219 190 208 192 212 225 227 210 213 210 204 205 206 213 219 189 204 241 225 239 258 260 266 271 272 271 269 263 251 243 256
257 245 234 272 269 266 264 270 299 47 304 243 219 216 219 214 197 202 205 212 209 239 249 248 241 241 239 226 225 223 215 212 212 206 208 213 212 225 237 244 257 265 267 266 272 261 265 269 258
293 281 276 250 263 269 273 271 286 279 284 293 257 246 221 209 203 205 209 201 226 265 277 273 266 261 253 232 229 226 220 213 211 217 217 212 219 227 241 249 251 261 270 275 272 273 270 253 240